Regional Weather Roundup
Issued by NWS

Home | Current Version | Previous Version | Text Only | Print | Product List | Glossary On
Versions: 1 2 3 4 5 6 7 8 9 10 11 12 13 14 15 16 17 18 19 20 21 22 23 24 25 26 27 28 29 30 31 32 33 34 35 36 37 38 39 40 41 42 43 44 45 46 47 48 49 50
945
ASUS44 KLIX 201210
RWRLA
LOUISIANA WEATHER ROUNDUP
NATIONAL WEATHER SERVICE NEW ORLEANS LA
600 AM CST SAT DEC 20 2014

NOTE: "FAIR" INDICATES FEW OR NO CLOUDS BELOW 12,000 FEET WITH NO
      SIGNIFICANT WEATHER AND/OR OBSTRUCTIONS TO VISIBILITY.
      SKY/WX - SKY CONDITION AND SIGNIFICANT WEATHER.
      TMP - AIR TEMPERATURE.    DP   - DEWPOINT TEMPERATURE.
      RH  - RELATIVE HUMIDITY.  PRES - PRESSURE.
      HX  - HEAT INDEX.         WCI  - WIND CHILL INDEX.

*  THESE STATIONS ARE NOT NWS OR FAA STATIONS AND ARE NOT UNDER
   NWS QUALITY CONTROL.

LAZ040-048-061>063-065-066-069-201300-
SOUTHEAST LOUISIANA

CITY           SKY/WX    TMP DP  RH WIND       PRES   REMARKS
N.O. AUDUBON     N/A     50  50  99 MISG        N/A
6HR MIN TEMP:  49; 6HR MAX TEMP:  53; 6HR PCP:  0.16;

N.O. INTL ARPT CLOUDY    50  47  89 NE16      30.10R FOG
6HR MIN TEMP:  49; 6HR MAX TEMP:  52; 6HR PCP:  0.04;

N.O. LAKEFRONT CLOUDY    51  47  86 NE20      30.11R
6HR MIN TEMP:  51; 6HR MAX TEMP:  54; 6HR PCP:  0.14;

N.O. DOWNTOWN* CLOUDY    48  45  87 N9        30.10S
6HR MIN TEMP:  48; 6HR MAX TEMP:  52; 6HR PCP:  0.23;

SLIDELL        CLOUDY    48  46  93 NE10      30.11R
6HR MIN TEMP:  48; 6HR MAX TEMP:  50; 6HR PCP:  0.09;

BATON ROUGE    CLOUDY    48  45  89 E6        30.13R
6HR MIN TEMP:  48; 6HR MAX TEMP:  48; 6HR PCP:  0.03;

BOOTHVILLE     CLOUDY    54  52  93 N13G26    30.06R
6HR MIN TEMP:  53; 6HR MAX TEMP:  60; 6HR PCP:  0.32;

BELLE CHASSE   CLOUDY    49  48  97 N9G18     30.09R
6HR MIN TEMP:  49; 6HR MAX TEMP:  52; 6HR PCP:  0.22;

BOGALUSA*        N/A     48  45  87 NE3       30.15R
6HR MIN TEMP:  48; 6HR MAX TEMP:  49; 6HR PCP:  0.06;

GALLIANO*      CLOUDY    53  53  97 MISG      30.08R
6HR MIN TEMP:  53; 6HR MAX TEMP:  54; 6HR PCP:  0.07;

NEW ROADS*     CLOUDY    47  46  95 N6        30.14R
6HR MIN TEMP:  47; 6HR MAX TEMP:  47;

GONZALES*      CLOUDY    48  48 100 N7        30.12R FOG
6HR MIN TEMP:  48; 6HR MAX TEMP:  50; 6HR PCP:  0.02;

HAMMOND*       NOT AVBL
HOUMA*         CLOUDY    48  48 100 N12       30.09R FOG
PORT FOURCHON* CLOUDY    55  52  88 NE17      30.09R

$$

LAZ041-044-053-054-201300-
SOUTHWEST LOUISIANA

CITY           SKY/WX    TMP DP  RH WIND       PRES   REMARKS
LAKE CHARLES   CLOUDY    49  47  93 MISG      30.14R
6HR MIN TEMP:  49; 6HR MAX TEMP:  50;

LAFAYETTE      CLOUDY    49  47  93 NE9       30.13R
6HR MIN TEMP:  48; 6HR MAX TEMP:  49;

PATTERSON      CLOUDY    48  46  93 N16       30.11R
6HR MIN TEMP:  48; 6HR MAX TEMP:  54;

SALT POINT       N/A     53  49  86 VRB6      30.09R
6HR MIN TEMP:  53; 6HR MAX TEMP:  56; 6HR PCP:  0.03;

NEW IBERIA     CLOUDY    50  47  89 N12       30.12R FOG
6HR MIN TEMP:  49; 6HR MAX TEMP:  51; 6HR PCP:  0.02;

CHENAULT AIRPK CLOUDY    48  46  93 N7        30.15

$$

LAZ027-028-201300-
CENTRAL LOUISIANA

CITY           SKY/WX    TMP DP  RH WIND       PRES   REMARKS
FORT POLK      CLOUDY    46  46 100 N7        30.15R
6HR MIN TEMP:  47; 6HR MAX TEMP:  47; 6HR PCP: TRACE;

ALEXANDRIA INT CLOUDY    47  45  93 N6        30.16R
6HR MIN TEMP:  47; 6HR MAX TEMP:  47; 6HR PCP:  0.01;

ALEXANDRIA     CLOUDY    46  44  93 CALM      30.17R
6HR MIN TEMP:  46; 6HR MAX TEMP:  47; 6HR PCP:  0.02;


$$

LAZ001-002-201300-
NORTHWEST LOUISIANA

CITY           SKY/WX    TMP DP  RH WIND       PRES   REMARKS
SHREVEPORT     CLOUDY    45  43  93 N9        30.20R
6HR MIN TEMP:  45; 6HR MAX TEMP:  47;

BARKSDALE AFB  NOT AVBL
DTN SHREVEPORT CLOUDY    44  41  89 N7        30.22R
6HR MIN TEMP:  44; 6HR MAX TEMP:  46;


$$

LAZ014-016-201300-
NORTHEAST LOUISIANA

CITY           SKY/WX    TMP DP  RH WIND       PRES   REMARKS
MONROE         CLEAR     40  39  97 N5        30.22R
6HR MIN TEMP:  39; 6HR MAX TEMP:  46;

TALLULAH       CLOUDY    45  42  89 NE7       30.20R
6HR MIN TEMP:  44; 6HR MAX TEMP:  46; 6HR PCP: TRACE;


$$




USA.gov is the U.S. government's official web portal to all federal, state and local government web resources and services.